Location: Blackwall
(51.5097°N, 0.0016°W)
Time: 23:40:04
(UTC+00:00)

Cosmos 2219 Rocket - Pass Details

Date: 15 May 2026
Orbit: 825 x 846 km, 71.0° (Epoch: 11 June)

Event Time Altitude Azimuth Distance (km) Brightness Sun altitude
Rises 21:56:32 0° 328° (NNW) 3,405 7.3 -14.7°
Reaches altitude 10° 21:58:59 10° 327° (NNW) 2,470 6.0 -14.9°
Maximum altitude 22:04:38 74° 244° (WSW) 882 2.3 -15.3°
Enters shadow 22:08:10 24° 163° (SSE) 1,693 3.2 -15.6°
